When you browse on this site, cookies collect data to enhance your experience and personalize the content and advertising you see.
Visit our Privacy Policy to learn more. By continuing to use the site, you agree to this use of cookies and data.
  • In Österreich
  • Länderverzeichnis
  • Für 7 Tage
  • Wassertemperatur
  • Satellitenkarten
  • Wetterkarte
  • News
  • Widgets
  • user-avatar
    Anmelden

    Stündliche Wetter Luanda

    Heute, 24 April, Mittwoch

    Zeit Temperatur Niederschläge Wind Luftdruck Luftfeuchtigkeit
    00:00 +27°C° 0 mm 4 m/S 753 mmHg 91%
    01:00 +27°C° 0 mm 3 m/S 753 mmHg 92%
    02:00 +27°C° 0 mm 3 m/S 753 mmHg 92%
    03:00 +26°C° 0 mm 3 m/S 752 mmHg 93%
    04:00 +26°C° 0 mm 2 m/S 752 mmHg 93%
    05:00 +26°C° 0 mm 2 m/S 753 mmHg 92%
    06:00 +27°C° 0 mm 2 m/S 753 mmHg 92%
    07:00 +27°C° 0 mm 2 m/S 753 mmHg 89%
    08:00 +28°C° 0 mm 2 m/S 753 mmHg 84%
    09:00 +30°C° 0 mm 1 m/S 753 mmHg 78%
    10:00 +31°C° 0 mm 1 m/S 754 mmHg 72%
    11:00 +32°C° 0 mm 2 m/S 753 mmHg 68%
    12:00 +34°C° 0 mm 3 m/S 753 mmHg 64%
    13:00 +36°C° 0 mm 3 m/S 752 mmHg 60%
    14:00 +35°C° 0 mm 4 m/S 752 mmHg 64%
    15:00 +34°C° 0 mm 5 m/S 751 mmHg 68%
    16:00 +33°C° 0 mm 5 m/S 751 mmHg 72%
    17:00 +32°C° 0.2 mm 5 m/S 751 mmHg 77%
    18:00 +29°C° 0.2 mm 4 m/S 752 mmHg 82%
    19:00 +28°C° 0.2 mm 4 m/S 752 mmHg 87%
    20:00 +28°C° 0 mm 4 m/S 753 mmHg 88%
    21:00 +28°C° 0 mm 3 m/S 753 mmHg 88%
    22:00 +28°C° 0 mm 3 m/S 754 mmHg 89%
    23:00 +28°C° 0 mm 3 m/S 754 mmHg 89%

    Morgen, 25 April, Donnerstag

    Zeit Temperatur Niederschläge Wind Luftdruck Luftfeuchtigkeit
    00:00 +28°C° 0 mm 2 m/S 754 mmHg 90%
    01:00 +28°C° 0 mm 2 m/S 754 mmHg 91%
    02:00 +27°C° 0 mm 2 m/S 754 mmHg 91%
    03:00 +27°C° 0 mm 2 m/S 753 mmHg 92%
    04:00 +27°C° 0 mm 2 m/S 753 mmHg 92%
    05:00 +27°C° 0 mm 2 m/S 753 mmHg 92%
    06:00 +27°C° 0 mm 2 m/S 754 mmHg 91%
    07:00 +27°C° 0 mm 2 m/S 754 mmHg 91%
    08:00 +29°C° 0 mm 2 m/S 754 mmHg 83%
    09:00 +30°C° 0 mm 1 m/S 755 mmHg 75%
    10:00 +32°C° 0 mm 1 m/S 755 mmHg 67%
    11:00 +34°C° 0 mm 2 m/S 754 mmHg 62%
    12:00 +35°C° 0 mm 3 m/S 753 mmHg 58%
    13:00 +36°C° 0 mm 3 m/S 753 mmHg 53%
    14:00 +35°C° 0 mm 4 m/S 752 mmHg 56%
    15:00 +35°C° 0 mm 4 m/S 752 mmHg 60%
    16:00 +34°C° 0 mm 5 m/S 751 mmHg 63%
    17:00 +32°C° 0 mm 5 m/S 751 mmHg 68%
    18:00 +30°C° 0 mm 4 m/S 752 mmHg 73%
    19:00 +28°C° 0 mm 4 m/S 752 mmHg 77%
    20:00 +28°C° 0 mm 4 m/S 753 mmHg 78%
    21:00 +28°C° 0 mm 3 m/S 753 mmHg 79%
    22:00 +28°C° 0 mm 3 m/S 754 mmHg 80%
    23:00 +28°C° 0 mm 3 m/S 753 mmHg 81%

    übermorgen, 26 April, Freitag

    Zeit Temperatur Niederschläge Wind Luftdruck Luftfeuchtigkeit
    00:00 +27°C° 0 mm 3 m/S 753 mmHg 81%
    01:00 +27°C° 0 mm 2 m/S 753 mmHg 82%
    02:00 +27°C° 0 mm 2 m/S 752 mmHg 83%
    03:00 +27°C° 0 mm 2 m/S 752 mmHg 85%
    04:00 +27°C° 0 mm 2 m/S 752 mmHg 86%
    05:00 +27°C° 0 mm 2 m/S 752 mmHg 85%
    06:00 +27°C° 0 mm 2 m/S 753 mmHg 85%
    07:00 +27°C° 0 mm 2 m/S 753 mmHg 85%
    08:00 +28°C° 0 mm 2 m/S 753 mmHg 77%
    09:00 +30°C° 0 mm 1 m/S 754 mmHg 69%
    10:00 +32°C° 0 mm 1 m/S 754 mmHg 60%
    11:00 +34°C° 0 mm 2 m/S 753 mmHg 57%
    12:00 +35°C° 0 mm 2 m/S 752 mmHg 54%
    13:00 +36°C° 0 mm 3 m/S 751 mmHg 51%
    14:00 +35°C° 0 mm 4 m/S 751 mmHg 56%
    15:00 +34°C° 0 mm 4 m/S 750 mmHg 61%
    16:00 +34°C° 0 mm 5 m/S 750 mmHg 65%
    17:00 +32°C° 0 mm 5 m/S 750 mmHg 71%
    18:00 +30°C° 0 mm 4 m/S 751 mmHg 76%
    19:00 +28°C° 0 mm 3 m/S 751 mmHg 81%
    20:00 +28°C° 0 mm 3 m/S 752 mmHg 81%
    21:00 +28°C° 0 mm 3 m/S 752 mmHg 82%
    22:00 +28°C° 0 mm 3 m/S 753 mmHg 83%
    23:00 +27°C° 0 mm 3 m/S 752 mmHg 84%

    27 April, Samstag

    Zeit Temperatur Niederschläge Wind Luftdruck Luftfeuchtigkeit
    00:00 +27°C° 0 mm 3 m/S 752 mmHg 85%
    01:00 +27°C° 0 mm 3 m/S 752 mmHg 85%
    02:00 +27°C° 0.2 mm 3 m/S 752 mmHg 87%
    03:00 +26°C° 0.2 mm 2 m/S 751 mmHg 89%
    04:00 +26°C° 0.2 mm 2 m/S 751 mmHg 90%
    05:00 +26°C° 0.1 mm 2 m/S 751 mmHg 90%
    06:00 +26°C° 0.1 mm 2 m/S 752 mmHg 90%
    07:00 +26°C° 0.1 mm 2 m/S 752 mmHg 89%
    08:00 +28°C° 0.1 mm 2 m/S 752 mmHg 81%
    09:00 +30°C° 0.1 mm 2 m/S 753 mmHg 73%
    10:00 +32°C° 0.1 mm 2 m/S 753 mmHg 65%
    11:00 +34°C° 0 mm 2 m/S 752 mmHg 60%
    12:00 +35°C° 0 mm 2 m/S 751 mmHg 56%
    13:00 +37°C° 0 mm 2 m/S 750 mmHg 51%
    14:00 +36°C° 0 mm 3 m/S 750 mmHg 55%
    15:00 +35°C° 0 mm 4 m/S 750 mmHg 60%
    16:00 +34°C° 0 mm 6 m/S 749 mmHg 64%
    17:00 +32°C° 0.9 mm 5 m/S 750 mmHg 72%
    18:00 +30°C° 0.9 mm 4 m/S 751 mmHg 79%
    19:00 +28°C° 0.9 mm 4 m/S 751 mmHg 86%
    20:00 +28°C° 0.2 mm 3 m/S 752 mmHg 87%
    21:00 +28°C° 0.2 mm 2 m/S 752 mmHg 87%
    22:00 +28°C° 0.2 mm 2 m/S 753 mmHg 87%
    23:00 +28°C° 0 mm 2 m/S 752 mmHg 88%

    28 April, Sonntag

    Zeit Temperatur Niederschläge Wind Luftdruck Luftfeuchtigkeit
    00:00 +27°C° 0 mm 2 m/S 752 mmHg 88%
    01:00 +27°C° 0 mm 2 m/S 752 mmHg 89%
    02:00 +27°C° 0 mm 2 m/S 752 mmHg 89%
    03:00 +27°C° 0 mm 2 m/S 751 mmHg 90%
    04:00 +27°C° 0 mm 2 m/S 751 mmHg 91%
    05:00 +27°C° 0 mm 2 m/S 752 mmHg 91%
    06:00 +27°C° 0 mm 3 m/S 752 mmHg 91%
    07:00 +27°C° 0 mm 3 m/S 752 mmHg 91%
    08:00 +28°C° 0 mm 2 m/S 753 mmHg 83%
    09:00 +30°C° 0 mm 2 m/S 753 mmHg 76%
    10:00 +31°C° 0 mm 1 m/S 753 mmHg 69%
    11:00 +34°C° 0 mm 2 m/S 752 mmHg 65%
    12:00 +35°C° 0 mm 3 m/S 751 mmHg 61%
    13:00 +36°C° 0 mm 3 m/S 751 mmHg 56%
    14:00 +35°C° 0.1 mm 4 m/S 750 mmHg 61%
    15:00 +34°C° 0.1 mm 5 m/S 750 mmHg 66%
    16:00 +33°C° 0.1 mm 5 m/S 750 mmHg 70%
    17:00 +32°C° 1.9 mm 5 m/S 750 mmHg 77%
    18:00 +29°C° 1.9 mm 4 m/S 751 mmHg 83%
    19:00 +28°C° 1.9 mm 3 m/S 752 mmHg 90%
    20:00 +28°C° 0.1 mm 3 m/S 752 mmHg 90%
    21:00 +28°C° 0.1 mm 2 m/S 753 mmHg 90%
    22:00 +28°C° 0.1 mm 2 m/S 753 mmHg 90%
    23:00 +28°C° 0 mm 2 m/S 753 mmHg 91%

    29 April, Montag

    Zeit Temperatur Niederschläge Wind Luftdruck Luftfeuchtigkeit
    00:00 +28°C° 0 mm 2 m/S 753 mmHg 91%
    01:00 +28°C° 0 mm 2 m/S 753 mmHg 91%
    02:00 +27°C° 0 mm 2 m/S 753 mmHg 91%
    03:00 +27°C° 0 mm 2 m/S 753 mmHg 91%
    04:00 +27°C° 0 mm 2 m/S 753 mmHg 91%
    05:00 +27°C° 0 mm 2 m/S 753 mmHg 91%
    06:00 +27°C° 0 mm 2 m/S 753 mmHg 91%
    07:00 +27°C° 0 mm 2 m/S 754 mmHg 91%
    08:00 +29°C° 0 mm 2 m/S 754 mmHg 84%
    09:00 +30°C° 0 mm 2 m/S 754 mmHg 76%
    10:00 +31°C° 0 mm 1 m/S 754 mmHg 69%
    11:00 +32°C° 0 mm 2 m/S 753 mmHg 65%
    12:00 +35°C° 0 mm 2 m/S 752 mmHg 61%
    13:00 +36°C° 0 mm 3 m/S 752 mmHg 56%
    14:00 +35°C° 0.5 mm 3 m/S 751 mmHg 61%
    15:00 +34°C° 0.5 mm 4 m/S 751 mmHg 66%
    16:00 +33°C° 0.5 mm 4 m/S 751 mmHg 71%
    17:00 +30°C° 1.1 mm 4 m/S 752 mmHg 76%
    18:00 +29°C° 1.1 mm 3 m/S 752 mmHg 81%
    19:00 +28°C° 1.1 mm 2 m/S 753 mmHg 87%
    20:00 +28°C° 0.2 mm 2 m/S 753 mmHg 87%
    21:00 +28°C° 0.2 mm 2 m/S 754 mmHg 88%
    22:00 +28°C° 0.2 mm 2 m/S 754 mmHg 89%
    23:00 +27°C° 0.3 mm 2 m/S 754 mmHg 89%
    Mehr zeigen